Regional Weather Roundup
Issued by NWS Lake Charles, LA

Home | Current Version | Previous Version | Text Only | Print | Product List | Glossary On
Versions: 1 2 3 4 5 6 7 8 9 10 11 12 13 14 15 16 17 18 19 20 21 22 23 24 25 26 27 28 29 30 31 32 33 34 35 36
000
ASUS44 KLCH 230010
RWRLCH
RWRLCH
REGIONAL WEATHER ROUNDUP
NATIONAL WEATHER SERVICE LAKE CHARLES LA
700 PM CDT WED OCT 22 2014

Note: "fair" indicates few or no clouds below 12,000 feet with no
significant weather and/or obstructions to visibility.


ACROSS SOUTHEAST TEXAS

CITY           SKY/WX    TMP DP  RH WIND       PRES   REMARKS
BEAUMONT       CLEAR     74  58  57 NE7       30.03R
BEAUMONT CITY    N/A     71  60  67 N3        30.05R
ORANGE         CLEAR     73  58  60 N3        30.05S
JASPER         CLEAR     68  59  72 NE3       30.09S
$$

ACROSS CENTRAL LOUISIANA

CITY           SKY/WX    TMP DP  RH WIND       PRES   REMARKS
LEESVILLE      CLEAR     67  55  65 NE6       30.07R
FULLERTON        N/A     66  55  67 CALM      30.05R
ALEXANDRIA INT CLEAR     64  56  75 NE3       30.07R
ESLER FIELD    CLEAR     60  55  83 CALM      30.08R
DERIDDER         N/A     68  55  64 CALM      30.08S
OAKDALE        CLEAR     61  58  92 CALM      30.07R
OPELOUSAS        N/A     66  54  65 N5        30.06R
$$

ACROSS SOUTHWEST AND SOUTH CENTRAL LOUISIANA

CITY           SKY/WX    TMP DP  RH WIND       PRES   REMARKS
SULPHUR        CLEAR     72  58  60 N5        30.05S
LAKE CHARLES   CLEAR     70  58  65 NE7       30.04R
CHENNAULT INT  CLEAR     72  57  60 N3        30.05R
CAMERON PHI    NOT AVBL
DEQUINCY         N/A     68  59  74 CALM      30.06R
JENNINGS         N/A     69  52  54 NE5       30.05S
LAFAYETTE      CLEAR     69  56  62 N6        30.05R
NEW IBERIA     CLEAR     70  56  61 N5        30.05R
ABBEVILLE        N/A     68  57  68 N3        30.05R
PATTERSON      CLEAR     68  59  73 N3        30.06R
SALT POINT       N/A     71  60  68 CALM      30.02R
$$

SELECTED SITES ACROSS THE REGION

CITY           SKY/WX    TMP DP  RH WIND       PRES   REMARKS
HOUSTON BUSH   PTCLDY    73  58  59 NE6       30.05R
HOUSTON HOBBY  PTCLDY    74  60  61 E5        30.04R
GALVESTON      CLEAR     74  61  63 E8        30.04R
COLLEGE STAT   CLEAR     75  56  51 NE6       30.06R
CONROE         CLEAR     67  60  78 CALM      30.06R
HUNTSVILLE     CLEAR     71  58  63 CALM      30.06S
LUFKIN         CLEAR     71  57  61 NE5       30.07R
SHREVEPORT     CLEAR     67  51  56 E6        30.09S
MONROE         CLEAR     63  51  65 NE3       30.11S
NATCHEZ MS     CLEAR     64  52  63 NE3       30.09S
BATON ROUGE    CLEAR     65  55  70 N3        30.05R
N.O. INTL ARPT PTCLDY    71  52  50 NE5       30.03R
SLIDELL        CLEAR     65  58  78 CALM      30.04R
$$

MARINE REPORTS

STATION/POSITION TIME  TEMP    WIND        PRES    VSBY  WAVE
                       AIR SEA DIR/SP/G                  HT/PER
                 (UTC) (F)     (DEG/KT/KT) (MB)    (MI)  (FT/S)
BUOY 30 S HIGH I 0000   75 77   80/ 10/ 12 1016.7R         3/ 6
SEA RIM ST PARK  0000   73     120/  3/  3 1017.7R
PORT ARTHUR      0000      76   40/  1/  3 1017.2R
SABINE PASS N    0000   74 75  150/  2/  3 1017.2R
TEXAS POINT      0000   74 75  110/  2/  3 1017.2S
CALCASIEU PASS   0000   74 76   60/  7/  7   N/A
LK CHARLES BEACH 0000   75 78              1017.4R
MARSH ISLAND     NOT AVBL
FRESH WATER LOCK 0000   73 75   40/  4/  4 1016.9R
AMERADA PASS     0000   72 74   60/  3/  4 1016.8R
$$



USA.gov is the U.S. government's official web portal to all federal, state and local government web resources and services.